TimeCST,TemperatureF,Dew PointF,Humidity,Sea Level PressureIn,VisibilityMPH,Wind Direction,Wind SpeedMPH,Gust SpeedMPH,PrecipitationIn,Events,Conditions,WindDirDegrees,DateUTC
12:53 AM,33.1,24.1,70,29.84,10.0,ESE,13.8,-,N/A,,Clear,120,2013-02-09 06:53:00
1:53 AM,27.0,21.9,81,29.84,10.0,ESE,11.5,-,N/A,,Clear,110,2013-02-09 07:53:00
2:53 AM,26.1,21.9,84,29.83,10.0,ESE,10.4,-,N/A,,Clear,110,2013-02-09 08:53:00
3:53 AM,25.0,21.9,88,29.82,10.0,ESE,10.4,-,N/A,,Clear,120,2013-02-09 09:53:00
4:53 AM,21.9,19.0,89,29.81,9.0,East,8.1,-,N/A,,Clear,100,2013-02-09 10:53:00
5:53 AM,23.0,19.9,88,29.81,8.0,ESE,10.4,-,N/A,,Clear,120,2013-02-09 11:53:00
6:53 AM,21.9,19.0,89,29.82,8.0,ESE,10.4,-,N/A,,Clear,110,2013-02-09 12:53:00
7:53 AM,21.9,19.0,89,29.83,6.0,ESE,12.7,-,N/A,,Clear,120,2013-02-09 13:53:00
8:53 AM,27.0,23.0,85,29.81,8.0,ESE,6.9,-,N/A,,Clear,120,2013-02-09 14:53:00
9:53 AM,35.1,23.0,61,29.78,10.0,SE,9.2,-,N/A,,Clear,140,2013-02-09 15:53:00
10:53 AM,42.1,19.9,41,29.75,10.0,SSE,11.5,18.4,N/A,,Clear,160,2013-02-09 16:53:00
11:53 AM,45.0,21.0,39,29.73,10.0,SSE,10.4,-,N/A,,Mostly Cloudy,160,2013-02-09 17:53:00
12:53 PM,50.0,21.0,32,29.66,10.0,SE,15.0,21.9,N/A,,Clear,130,2013-02-09 18:53:00
1:53 PM,48.9,23.0,36,29.64,10.0,SSE,15.0,-,N/A,,Mostly Cloudy,150,2013-02-09 19:53:00
2:53 PM,51.1,25.0,36,29.59,10.0,SSE,20.7,27.6,N/A,,Clear,160,2013-02-09 20:53:00
3:53 PM,50.0,27.0,41,29.55,10.0,SE,19.6,25.3,N/A,,Clear,140,2013-02-09 21:53:00
4:53 PM,50.0,30.0,46,29.55,10.0,SE,12.7,20.7,N/A,,Clear,130,2013-02-09 22:53:00
5:53 PM,48.0,33.1,56,29.54,10.0,East,10.4,-,N/A,,Overcast,100,2013-02-09 23:53:00
6:53 PM,46.9,35.1,63,29.54,10.0,ESE,12.7,-,N/A,,Overcast,120,2013-02-10 00:53:00
7:46 PM,46.4,35.6,66,29.48,10.0,SE,13.8,-,N/A,,Overcast,140,2013-02-10 01:46:00
7:53 PM,46.9,37.0,68,29.52,9.0,SSE,13.8,-,0.00,Rain,Light Rain,150,2013-02-10 01:53:00
8:53 PM,43.0,39.0,86,29.53,7.0,SSE,15.0,23.0,0.04,Rain,Light Rain,150,2013-02-10 02:53:00
9:09 PM,42.8,39.2,87,29.47,7.0,SE,4.6,-,0.00,Rain,Light Rain,130,2013-02-10 03:09:00
9:26 PM,42.8,39.2,87,29.46,8.0,Variable,5.8,-,0.00,,Overcast,0,2013-02-10 03:26:00
9:53 PM,41.0,39.0,93,29.47,5.0,ESE,13.8,-,0.01,Rain,Light Rain,120,2013-02-10 03:53:00
10:48 PM,39.2,37.4,93,29.40,4.0,ESE,13.8,-,0.01,Rain,Light Rain,110,2013-02-10 04:48:00
10:53 PM,39.9,37.9,93,29.41,4.0,ESE,15.0,-,0.01,Rain,Light Rain,110,2013-02-10 04:53:00
11:21 PM,39.2,37.4,93,29.37,6.0,East,6.9,-,0.00,,Overcast,90,2013-02-10 05:21:00
11:40 PM,39.2,37.4,93,29.36,8.0,East,5.8,-,0.00,,Overcast,90,2013-02-10 05:40:00
11:53 PM,39.9,37.9,93,29.38,10.0,Calm,Calm,-,0.00,,Overcast,0,2013-02-10 05:53:00